Location: Les Moreaux
(47.2278°N, 1.4966°E)
Time: 19:21:30
(UTC+00:00)

Terra - Pass Details

Date: 19 May 2025
Orbit: 690 x 691 km, 98.0° (Epoch: 23 June)

Event Time Altitude Azimuth Distance (km) Brightness Sun altitude
Exits shadow 20:50:12 10° 173° (S) 2,150 3.8 -11.5°
Reaches altitude 10° 20:50:14 10° 173° (S) 2,137 3.8 -11.5°
Maximum altitude 20:54:54 71° 258° (WSW) 733 2.0 -12.1°
Drops below altitude 10° 20:59:36 10° 342° (NNW) 2,154 5.5 -12.6°
Sets 21:01:53 0° 345° (NNW) 3,075 6.4 -12.8°
